Regional Weather Roundup
Issued by NWS Charleston, SC

Current Version | Previous Version | Graphics & Text | Print | Product List | Glossary On
Versions: 1 2 3 4 5 6 7 8 9 10 11 12 13 14 15 16 17 18 19 20 21 22 23 24 25 26 27 28 29 30 31 32 33 34 35 36 37 38 39 40 41 42 43 44 45 46 47 48 49 50
000
ASUS42 KCHS 050012
RWRCHS

REGIONAL WEATHER ROUNDUP
NATIONAL WEATHER SERVICE CHARLESTON SC
800 PM EDT MON MAY 04 2015

NOTE: "FAIR" INDICATES FEW OR NO CLOUDS BELOW 12,000 FEET WITH NO
SIGNIFICANT WEATHER AND/OR OBSTRUCTIONS TO VISIBILITY.

NOT ALL STATIONS ARE QUALITY CONTROLLED BY THE NATIONAL
WEATHER SERVICE. USE DATA WITH CAUTION...ESPECIALLY
DEWPOINT OBSERVATIONS.

SCZ027-030-031-034>040-042>050-050100-
...SOUTHEAST SOUTH CAROLINA...

CITY           SKY/WX    TMP DP  RH WIND       PRES   REMARKS
N CHARLESTON   PTCLDY    72  52  49 SE10      30.30R
6HR MIN TEMP:  72; 6HR MAX TEMP:  79;

WATERFRONT PRK   N/A     72 N/A N/A E10         N/A
MOUNT PLEASANT FAIR      70  57  64 MISG      30.30S
PINOPOLIS      NOT AVBL
MONCKS CORNER  MOCLDY    72  55  56 CALM      30.29S
SUMMERVILLE    FAIR      72  55  56 SE5       30.30R
BEAUFORT MCAS  CLEAR     71  58  63 E7        30.29R
6HR MIN TEMP:  71; 6HR MAX TEMP:  79;

BEAUFORT ARPT  FAIR      72  59  64 CALM      30.28S
HILTON HEAD IS CLEAR     72  61  68 NE5       30.29S
WALTERBORO     NOT AVBL
ALLENDALE      FAIR      72  57  60 SE5       30.27S

...SOUTHERN MIDLANDS AND PEE DEE...

CITY           SKY/WX    TMP DP  RH WIND       PRES   REMARKS
GEORGETOWN     NOT AVBL
KINGSTREE      NOT AVBL
ORANGEBURG     CLEAR     72  54  53 S5        30.28R
6HR MIN TEMP:  72; 6HR MAX TEMP:  82;

BARNWELL       FAIR      72  55  56 S3        30.29R
AIKEN          FAIR      70  54  56 SE6       30.31R
MANNING        MOCLDY    72  52  49 S5        30.29R
COLUMBIA       PTCLDY    76  55  48 S12       30.26R
6HR MIN TEMP:  76; 6HR MAX TEMP:  84;

SUMTER         CLEAR     74  55  52 S8        30.26R
6HR MIN TEMP:  74; 6HR MAX TEMP:  83;

FLORENCE       CLEAR     73  54  51 S8        30.28R
6HR MIN TEMP:  73; 6HR MAX TEMP:  83;

MYRTLE BEACH   CLEAR     73  57  56 SE12      30.32S
N MYRTLE BEACH CLEAR     70  60  70 SE5       30.30S
6HR MIN TEMP:  70; 6HR MAX TEMP:  76;


$$

GAZ063-065-086>088-099>101-113>116-118-119-134>141-150-050100-
...SOUTHEAST GEORGIA...

CITY           SKY/WX    TMP DP  RH WIND       PRES   REMARKS
SAVANNAH ARPT  PTCLDY    72  54  53 E8        30.28R
6HR MIN TEMP:  72; 6HR MAX TEMP:  80;

HUNTER AAF     CLEAR     71  56  58 E7        30.26R
6HR MIN TEMP:  71; 6HR MAX TEMP:  79;

FORT STEWART   CLEAR     71  57  59 E2        30.26R
6HR MIN TEMP:  71; 6HR MAX TEMP:  79;

STATESBORO       N/A     72  57  58 SE7       30.28R
SYLVANIA       PTCLDY    71  57  61 SE5       30.28S
CLAXTON        FAIR      72  57  60 SE3       30.27R

...CSRA...CENTRAL AND FAR SOUTHEAST GEORGIA...

CITY           SKY/WX    TMP DP  RH WIND       PRES   REMARKS
THOMSON        CLEAR     74  62  64 CALM      30.29S
AUGUSTA-BUSH   CLEAR     73  56  54 S10       30.26R
6HR MIN TEMP:  73; 6HR MAX TEMP:  83;

AUGUSTA-DANIEL CLEAR     75  55  49 S9G21     30.27R
SWAINSBORO     NOT AVBL
VIDALIA        CLEAR     73  55  53 SE5       30.26R
EASTMAN        CLOUDY    76  57  52 SE6       30.27R
HAZLEHURST     FAIR      74  53  48 E3        30.25R
ALMA           CLEAR     73  54  51 E6        30.25R
6HR MIN TEMP:  73; 6HR MAX TEMP:  82;

WAYCROSS       CLEAR     76  57  50 SE7       30.25R
JESUP          FAIR      73  59  60 E6        30.26S
BAXLEY         FAIR      73  55  53 E3        30.25R
BRUNSWICK      CLEAR     70  55  60 E6        30.27R
SAINT SIMONS   CLEAR     72  58  61 E12       30.26R
6HR MIN TEMP:  72; 6HR MAX TEMP:  78;


$$

SCZ027-028-034-036>038-045-046-048>050-GAZ119-141-050100-
...LAKE AND SUPPLEMENTAL COASTAL OBSERVATIONS...

STATION/POSITION TIME  TEMP    WIND        PRES    WAVE   SWELL
                       AIR SEA DIR/SP/G            HT/PER HT/PER/DIR
                 (UTC) (F)     (DEG/KT/KT) (MB)    (FT/S) (FT/S/D)
UPR LAKE MARION  NOT AVBL
WINYAH BAY       2245   74     130/ 10     1025.0
LAKE MURRAY      2300   80      CALM  /  1 1023.4F
ACE BASIN NERRS  NOT AVBL
FORT PULASKI     2300   72 71   70/ 11/ 12 1025.6F
SAPELO ISLAND    2300   74      70/  7     1024.0F

$$

ANZ835-935-AMZ111-154-330-350-352-354-370-450-454-472-050100-
...C-MAN AND BUOY OBSERVATIONS...

STATION/POSITION TIME  TEMP    WIND        PRES    WAVE   SWELL
                       AIR SEA DIR/SP/G            HT/PER HT/PER/DIR
                 (UTC) (F)     (DEG/KT/KT) (MB)    (FT/S) (FT/S/D)
BUOY 41004       2350   73 74  100/ 16/ 17 1025.1R   3/11   2/11
BUOY 41008       2350   71 70   80/  8/ 10 1024.8R   3/ 5   3/110/ 5
FOLLY BEACH CMAN 0000   71      80/  7/  8 1025.8S
CAPERS NEARSHORE 2308   72     120/ 12/ 14 1025.6F
FRIPP NEARSHORE  2300   72      90/ 10/ 10 1024.4F


STATION/POSITION TIME  TEMP    WIND        PRES    WAVE   SWELL
                       AIR SEA DIR/SP/G            HT/PER HT/PER/DIR
                 (UTC) (F)     (DEG/KT/KT) (MB)    (FT/S) (FT/S/D)
5E ST. MARYS GA  2321      72                N/A     4/ 5   2/ 90/12
FRYING PAN BUOY  2350   74 73  130/ 10/ 12 1027.1F   3/ 9   2/ 70/ 9
BUOY 41025       2350   74 78  210/ 10/ 14 1026.8R   4/12   3/ 70/12
CAPE LOOKOUT NC  2300   70     170/  6/  6 1026.3F
BUOY 41002       2350   69 70   90/ 14/ 17 1026.8R   5/12   3/ 60/12
BUOY 41010       2320   74 78   80/ 17/ 23 1022.6F
ST AUGUSTINE FL  0000   72 72   90/  7/  8 1024.4S


$$



USA.gov is the U.S. government's official web portal to all federal, state and local government web resources and services.